Year,Month,Day,Hour,Minute,Value (Times are PST for temperature in C)
2017,10,18,00,00,7.80
2017,10,18,00,01,7.80
2017,10,18,00,02,7.80
2017,10,18,00,03,7.80
2017,10,18,00,04,7.80
2017,10,18,00,05,7.70
2017,10,18,00,06,7.70
2017,10,18,00,07,7.70
2017,10,18,00,08,7.60
2017,10,18,00,09,7.60
2017,10,18,00,10,7.50
2017,10,18,00,11,7.50
2017,10,18,00,12,7.40
2017,10,18,00,13,7.20
2017,10,18,00,14,7.10
2017,10,18,00,15,7.00
2017,10,18,00,16,6.90
2017,10,18,00,17,6.80
2017,10,18,00,18,6.80
2017,10,18,00,19,6.70
2017,10,18,00,20,6.70
2017,10,18,00,21,6.70
2017,10,18,00,22,6.70
2017,10,18,00,23,6.70
2017,10,18,00,24,6.60
2017,10,18,00,25,6.60
2017,10,18,00,26,6.50
2017,10,18,00,27,6.50
2017,10,18,00,28,6.50
2017,10,18,00,29,6.40
2017,10,18,00,30,6.40
2017,10,18,00,31,6.40
2017,10,18,00,32,6.40
2017,10,18,00,33,6.40
2017,10,18,00,34,6.40
2017,10,18,00,35,6.40
2017,10,18,00,36,6.40
2017,10,18,00,37,6.40
2017,10,18,00,38,6.50
2017,10,18,00,39,6.50
2017,10,18,00,40,6.50
2017,10,18,00,41,6.50
2017,10,18,00,42,6.40
2017,10,18,00,43,6.40
2017,10,18,00,44,6.40
2017,10,18,00,45,6.40
2017,10,18,00,46,6.30
2017,10,18,00,47,6.30
2017,10,18,00,48,6.30
2017,10,18,00,49,6.40
2017,10,18,00,50,6.40
2017,10,18,00,51,6.50
2017,10,18,00,52,6.50
2017,10,18,00,53,6.50
2017,10,18,00,54,6.60
2017,10,18,00,55,6.50
2017,10,18,00,56,6.50
2017,10,18,00,57,6.40
2017,10,18,00,58,6.40
2017,10,18,00,59,6.40
2017,10,18,01,00,6.40
2017,10,18,01,01,6.40
2017,10,18,01,02,6.40
2017,10,18,01,03,6.40
2017,10,18,01,04,6.30
2017,10,18,01,05,6.30
2017,10,18,01,06,6.40
2017,10,18,01,07,6.40
2017,10,18,01,08,6.50
2017,10,18,01,09,6.50
2017,10,18,01,10,6.60
2017,10,18,01,11,6.60
2017,10,18,01,12,6.70
2017,10,18,01,13,6.70
2017,10,18,01,14,6.70
2017,10,18,01,15,6.70
2017,10,18,01,16,6.70
2017,10,18,01,17,6.70
2017,10,18,01,18,6.70
2017,10,18,01,19,6.70
2017,10,18,01,20,6.70
2017,10,18,01,21,6.70
2017,10,18,01,22,6.60
2017,10,18,01,23,6.60
2017,10,18,01,24,6.60
2017,10,18,01,25,6.50
2017,10,18,01,26,6.40
2017,10,18,01,27,6.20
2017,10,18,01,28,6.10
2017,10,18,01,29,6.00
2017,10,18,01,30,5.90
2017,10,18,01,31,5.80
2017,10,18,01,32,5.80
2017,10,18,01,33,5.70
2017,10,18,01,34,5.70
2017,10,18,01,35,5.60
2017,10,18,01,36,5.60
2017,10,18,01,37,5.50
2017,10,18,01,38,5.50
2017,10,18,01,39,5.40
2017,10,18,01,40,5.40
2017,10,18,01,41,5.40
2017,10,18,01,42,5.40
2017,10,18,01,43,5.40
2017,10,18,01,44,5.30
2017,10,18,01,45,5.30
2017,10,18,01,46,5.30
2017,10,18,01,47,5.30
2017,10,18,01,48,5.30
2017,10,18,01,49,5.30
2017,10,18,01,50,5.30
2017,10,18,01,51,5.30
2017,10,18,01,52,5.30
2017,10,18,01,53,5.30
2017,10,18,01,54,5.30
2017,10,18,01,55,5.30
2017,10,18,01,56,5.20
2017,10,18,01,57,5.20
2017,10,18,01,58,5.20
2017,10,18,01,59,5.20
2017,10,18,02,00,5.20
2017,10,18,02,01,5.20
2017,10,18,02,02,5.20
2017,10,18,02,03,5.20
2017,10,18,02,04,5.20
2017,10,18,02,05,5.20
2017,10,18,02,06,5.30
2017,10,18,02,07,5.30
2017,10,18,02,08,5.30
2017,10,18,02,09,5.30
2017,10,18,02,10,5.20
2017,10,18,02,11,5.20
2017,10,18,02,12,5.20
2017,10,18,02,13,5.20
2017,10,18,02,14,5.10
2017,10,18,02,15,5.10
2017,10,18,02,16,5.10
2017,10,18,02,17,5.10
2017,10,18,02,18,5.10
2017,10,18,02,19,5.00
2017,10,18,02,20,5.00
2017,10,18,02,21,5.00
2017,10,18,02,22,5.10
2017,10,18,02,23,5.10
2017,10,18,02,24,5.10
2017,10,18,02,25,5.10
2017,10,18,02,26,5.10
2017,10,18,02,27,5.10
2017,10,18,02,28,5.10
2017,10,18,02,29,5.10
2017,10,18,02,30,5.10
2017,10,18,02,31,5.10
2017,10,18,02,32,5.10
2017,10,18,02,33,5.10
2017,10,18,02,34,5.10
2017,10,18,02,35,5.10
2017,10,18,02,36,5.00
2017,10,18,02,37,5.00
2017,10,18,02,38,5.00
2017,10,18,02,39,4.90
2017,10,18,02,40,4.90
2017,10,18,02,41,4.90
2017,10,18,02,42,4.90
2017,10,18,02,43,4.90
2017,10,18,02,44,4.90
2017,10,18,02,45,4.90
2017,10,18,02,46,4.90
2017,10,18,02,47,4.90
2017,10,18,02,48,4.90
2017,10,18,02,49,5.00
2017,10,18,02,50,5.00
2017,10,18,02,51,5.00
2017,10,18,02,52,5.10
2017,10,18,02,53,5.10
2017,10,18,02,54,5.20
2017,10,18,02,55,5.20
2017,10,18,02,56,5.20
2017,10,18,02,57,5.30
2017,10,18,02,58,5.30
2017,10,18,02,59,5.30
2017,10,18,03,00,5.40
2017,10,18,03,01,5.40
2017,10,18,03,02,5.50
2017,10,18,03,03,5.50
2017,10,18,03,04,5.50
2017,10,18,03,05,5.50
2017,10,18,03,06,5.50
2017,10,18,03,07,5.50
2017,10,18,03,08,5.50
2017,10,18,03,09,5.50
2017,10,18,03,10,5.40
2017,10,18,03,11,5.40
2017,10,18,03,12,5.40
2017,10,18,03,13,5.40
2017,10,18,03,14,5.30
2017,10,18,03,15,5.30
2017,10,18,03,16,5.30
2017,10,18,03,17,5.30
2017,10,18,03,18,5.30
2017,10,18,03,19,5.40
2017,10,18,03,20,5.40
2017,10,18,03,21,5.40
2017,10,18,03,22,5.40
2017,10,18,03,23,5.40
2017,10,18,03,24,5.40
2017,10,18,03,25,5.40
2017,10,18,03,26,5.40
2017,10,18,03,27,5.40
2017,10,18,03,28,5.40
2017,10,18,03,29,5.50
2017,10,18,03,30,5.50
2017,10,18,03,31,5.60
2017,10,18,03,32,5.60
2017,10,18,03,33,5.70
2017,10,18,03,34,5.80
2017,10,18,03,35,5.90
2017,10,18,03,36,5.90
2017,10,18,03,37,5.90
2017,10,18,03,38,5.90
2017,10,18,03,39,5.90
2017,10,18,03,40,5.90
2017,10,18,03,41,5.90
2017,10,18,03,42,5.90
2017,10,18,03,43,5.90
2017,10,18,03,44,5.90
2017,10,18,03,45,5.90
2017,10,18,03,46,5.80
2017,10,18,03,47,5.80
2017,10,18,03,48,5.80
2017,10,18,03,49,5.80
2017,10,18,03,50,5.80
2017,10,18,03,51,5.80
2017,10,18,03,52,5.80
2017,10,18,03,53,5.80
2017,10,18,03,54,5.80
2017,10,18,03,55,5.80
2017,10,18,03,56,5.80
2017,10,18,03,57,5.80
2017,10,18,03,58,5.80
2017,10,18,03,59,5.80
2017,10,18,04,00,5.80
2017,10,18,04,01,5.80
2017,10,18,04,02,5.80
2017,10,18,04,03,5.90
2017,10,18,04,04,5.90
2017,10,18,04,05,5.90
2017,10,18,04,06,5.90
2017,10,18,04,07,6.00
2017,10,18,04,08,6.00
2017,10,18,04,09,6.00
2017,10,18,04,10,6.10
2017,10,18,04,11,6.10
2017,10,18,04,12,6.10
2017,10,18,04,13,6.10
2017,10,18,04,14,6.10
2017,10,18,04,15,6.10
2017,10,18,04,16,6.10
2017,10,18,04,17,6.10
2017,10,18,04,18,6.10
2017,10,18,04,19,6.10
2017,10,18,04,20,6.10
2017,10,18,04,21,6.10
2017,10,18,04,22,6.10
2017,10,18,04,23,6.00
2017,10,18,04,24,6.00
2017,10,18,04,25,6.00
2017,10,18,04,26,6.00
2017,10,18,04,27,6.00
2017,10,18,04,28,6.00
2017,10,18,04,29,6.00
2017,10,18,04,30,6.10
2017,10,18,04,31,6.00
2017,10,18,04,32,6.00
2017,10,18,04,33,5.90
2017,10,18,04,34,5.90
2017,10,18,04,35,5.90
2017,10,18,04,36,5.90
2017,10,18,04,37,5.90
2017,10,18,04,38,5.90
2017,10,18,04,39,5.90
2017,10,18,04,40,5.90
2017,10,18,04,41,5.90
2017,10,18,04,42,6.00
2017,10,18,04,43,6.00
2017,10,18,04,44,6.00
2017,10,18,04,45,6.10
2017,10,18,04,46,6.10
2017,10,18,04,47,6.10
2017,10,18,04,48,6.20
2017,10,18,04,49,6.20
2017,10,18,04,50,6.30
2017,10,18,04,51,6.30
2017,10,18,04,52,6.40
2017,10,18,04,53,6.50
2017,10,18,04,54,6.50
2017,10,18,04,55,6.50
2017,10,18,04,56,6.50
2017,10,18,04,57,6.50
2017,10,18,04,58,6.60
2017,10,18,04,59,6.60
2017,10,18,05,00,6.60
2017,10,18,05,01,6.60
2017,10,18,05,02,6.60
2017,10,18,05,03,6.70
2017,10,18,05,04,6.70
2017,10,18,05,05,6.70
2017,10,18,05,06,6.80
2017,10,18,05,07,6.80
2017,10,18,05,08,6.80
2017,10,18,05,09,6.80
2017,10,18,05,10,6.80
2017,10,18,05,11,6.90
2017,10,18,05,12,7.00
2017,10,18,05,13,7.00
2017,10,18,05,14,7.10
2017,10,18,05,15,7.20
2017,10,18,05,16,7.20
2017,10,18,05,17,7.30
2017,10,18,05,18,7.30
2017,10,18,05,19,7.30
2017,10,18,05,20,7.40
2017,10,18,05,21,7.50
2017,10,18,05,22,7.50
2017,10,18,05,23,7.60
2017,10,18,05,24,7.60
2017,10,18,05,25,7.60
2017,10,18,05,26,7.60
2017,10,18,05,27,7.60
2017,10,18,05,28,7.60
2017,10,18,05,29,7.70
2017,10,18,05,30,7.80
2017,10,18,05,31,7.90
2017,10,18,05,32,7.90
2017,10,18,05,33,8.00
2017,10,18,05,34,8.00
2017,10,18,05,35,8.10
2017,10,18,05,36,8.10
2017,10,18,05,37,8.10
2017,10,18,05,38,8.10
2017,10,18,05,39,8.10
2017,10,18,05,40,8.10
2017,10,18,05,41,8.10
2017,10,18,05,42,8.10
2017,10,18,05,43,8.10
2017,10,18,05,44,8.10
2017,10,18,05,45,8.10
2017,10,18,05,46,8.10
2017,10,18,05,47,8.10
2017,10,18,05,48,8.10
2017,10,18,05,49,8.10
2017,10,18,05,50,8.10
2017,10,18,05,51,8.10
2017,10,18,05,52,8.10
2017,10,18,05,53,8.10
2017,10,18,05,54,8.10
2017,10,18,05,55,8.10
2017,10,18,05,56,8.10
2017,10,18,05,57,8.10
2017,10,18,05,58,8.20
2017,10,18,05,59,8.20
2017,10,18,06,00,8.20
2017,10,18,06,01,8.20
2017,10,18,06,02,8.30
2017,10,18,06,03,8.30
2017,10,18,06,04,8.30
2017,10,18,06,05,8.40
2017,10,18,06,06,8.40
2017,10,18,06,07,8.40
2017,10,18,06,08,8.40
2017,10,18,06,09,8.50
2017,10,18,06,10,8.50
2017,10,18,06,11,8.50
2017,10,18,06,12,8.60
2017,10,18,06,13,8.60
2017,10,18,06,14,8.70
2017,10,18,06,15,8.70
2017,10,18,06,16,8.70
2017,10,18,06,17,8.70
2017,10,18,06,18,8.80
2017,10,18,06,19,8.80
2017,10,18,06,20,8.80
2017,10,18,06,21,8.80
2017,10,18,06,22,8.80
2017,10,18,06,23,8.80
2017,10,18,06,24,8.80
2017,10,18,06,25,8.90
2017,10,18,06,26,8.90
2017,10,18,06,27,8.90
2017,10,18,06,28,9.00
2017,10,18,06,29,9.00
2017,10,18,06,30,9.00
2017,10,18,06,31,9.00
2017,10,18,06,32,9.10
2017,10,18,06,33,9.10
2017,10,18,06,34,9.10
2017,10,18,06,35,9.10
2017,10,18,06,36,9.10
2017,10,18,06,37,9.10
2017,10,18,06,38,9.10
2017,10,18,06,39,9.10
2017,10,18,06,40,9.10
2017,10,18,06,41,9.10
2017,10,18,06,42,9.10
2017,10,18,06,43,9.10
2017,10,18,06,44,9.10
2017,10,18,06,45,9.10
2017,10,18,06,46,9.10
2017,10,18,06,47,9.10
2017,10,18,06,48,9.10
2017,10,18,06,49,9.10
2017,10,18,06,50,9.10
2017,10,18,06,51,9.10
2017,10,18,06,52,9.10
2017,10,18,06,53,9.10
2017,10,18,06,54,9.10
2017,10,18,06,55,9.10
2017,10,18,06,56,9.10
2017,10,18,06,57,9.00
2017,10,18,06,58,9.00
2017,10,18,06,59,9.00
2017,10,18,07,00,9.00
2017,10,18,07,01,9.00
2017,10,18,07,02,9.00
2017,10,18,07,03,9.00
2017,10,18,07,04,8.90
2017,10,18,07,05,8.90
2017,10,18,07,06,8.90
2017,10,18,07,07,8.90
2017,10,18,07,08,8.90
2017,10,18,07,09,8.90
2017,10,18,07,10,8.90
2017,10,18,07,11,8.90
2017,10,18,07,12,8.90
2017,10,18,07,13,8.80
2017,10,18,07,14,8.80
2017,10,18,07,15,8.80
2017,10,18,07,16,8.80
2017,10,18,07,17,8.80
2017,10,18,07,18,8.80
2017,10,18,07,19,8.80
2017,10,18,07,20,8.80
2017,10,18,07,21,8.80
2017,10,18,07,22,8.70
2017,10,18,07,23,8.70
2017,10,18,07,24,8.70
2017,10,18,07,25,8.70
2017,10,18,07,26,8.70
2017,10,18,07,27,8.70
2017,10,18,07,28,8.60
2017,10,18,07,29,8.60
2017,10,18,07,30,8.60
2017,10,18,07,31,8.60
2017,10,18,07,32,8.60
2017,10,18,07,33,8.60
2017,10,18,07,34,8.60
2017,10,18,07,35,8.50
2017,10,18,07,36,8.50
2017,10,18,07,37,8.50
2017,10,18,07,38,8.50
2017,10,18,07,39,8.50
2017,10,18,07,40,8.50
2017,10,18,07,41,8.40
2017,10,18,07,42,8.40
2017,10,18,07,43,8.40
2017,10,18,07,44,8.40
2017,10,18,07,45,8.40
2017,10,18,07,46,8.40
2017,10,18,07,47,8.40
2017,10,18,07,48,8.40
2017,10,18,07,49,8.40
2017,10,18,07,50,8.40
2017,10,18,07,51,8.50
2017,10,18,07,52,8.50
2017,10,18,07,53,8.50
2017,10,18,07,54,8.50
2017,10,18,07,55,8.60
2017,10,18,07,56,8.60
2017,10,18,07,57,8.60
2017,10,18,07,58,8.60
2017,10,18,07,59,8.60
2017,10,18,08,00,8.60
2017,10,18,08,01,8.60
2017,10,18,08,02,8.70
2017,10,18,08,03,8.70
2017,10,18,08,04,8.70
2017,10,18,08,05,8.70
2017,10,18,08,06,8.70
2017,10,18,08,07,8.70
2017,10,18,08,08,8.70
2017,10,18,08,09,8.70
2017,10,18,08,10,8.70
2017,10,18,08,11,8.70
2017,10,18,08,12,8.70
2017,10,18,08,13,8.70
2017,10,18,08,14,8.70
2017,10,18,08,15,8.70
2017,10,18,08,16,8.70
2017,10,18,08,17,8.70
2017,10,18,08,18,8.70
2017,10,18,08,19,8.80
2017,10,18,08,20,8.80
2017,10,18,08,21,8.80
2017,10,18,08,22,8.80
2017,10,18,08,23,8.80
2017,10,18,08,24,8.80
2017,10,18,08,25,8.90
2017,10,18,08,26,8.90
2017,10,18,08,27,8.90
2017,10,18,08,28,8.90
2017,10,18,08,29,8.90
2017,10,18,08,30,8.90
2017,10,18,08,31,8.90
2017,10,18,08,32,9.00
2017,10,18,08,33,9.00
2017,10,18,08,34,9.00
2017,10,18,08,35,9.00
2017,10,18,08,36,9.00
2017,10,18,08,37,9.00
2017,10,18,08,38,9.10
2017,10,18,08,39,9.10
2017,10,18,08,40,9.10
2017,10,18,08,41,9.10
2017,10,18,08,42,9.10
2017,10,18,08,43,9.10
2017,10,18,08,44,9.10
2017,10,18,08,45,9.10
2017,10,18,08,46,9.10
2017,10,18,08,47,9.10
2017,10,18,08,48,9.10
2017,10,18,08,49,9.20
2017,10,18,08,50,9.20
2017,10,18,08,51,9.20
2017,10,18,08,52,9.20
2017,10,18,08,53,9.20
2017,10,18,08,54,9.20
2017,10,18,08,55,9.20
2017,10,18,08,56,9.20
2017,10,18,08,57,9.20
2017,10,18,08,58,9.20
2017,10,18,08,59,9.20
2017,10,18,09,00,9.20
2017,10,18,09,01,9.20
2017,10,18,09,02,9.20
2017,10,18,09,03,9.20
2017,10,18,09,04,9.20
2017,10,18,09,05,9.20
2017,10,18,09,06,9.30
2017,10,18,09,07,9.30
2017,10,18,09,08,9.30
2017,10,18,09,09,9.30
2017,10,18,09,10,9.30
2017,10,18,09,11,9.30
2017,10,18,09,12,9.30
2017,10,18,09,13,9.30
2017,10,18,09,14,9.30
2017,10,18,09,15,9.30
2017,10,18,09,16,9.30
2017,10,18,09,17,9.40
2017,10,18,09,18,9.40
2017,10,18,09,19,9.40
2017,10,18,09,20,9.40
2017,10,18,09,21,9.40
2017,10,18,09,22,9.40
2017,10,18,09,23,9.40
2017,10,18,09,24,9.40
2017,10,18,09,25,9.40
2017,10,18,09,26,9.40
2017,10,18,09,27,9.40
2017,10,18,09,28,9.40
2017,10,18,09,29,9.40
2017,10,18,09,30,9.40
2017,10,18,09,31,9.40
2017,10,18,09,32,9.40
2017,10,18,09,33,9.50
2017,10,18,09,34,9.50
2017,10,18,09,35,9.50
2017,10,18,09,36,9.50
2017,10,18,09,37,9.50
2017,10,18,09,38,9.50
2017,10,18,09,39,9.50
2017,10,18,09,40,9.50
2017,10,18,09,41,9.50
2017,10,18,09,42,9.50
2017,10,18,09,43,9.50
2017,10,18,09,44,9.50
2017,10,18,09,45,9.50
2017,10,18,09,46,9.50
2017,10,18,09,47,9.50
2017,10,18,09,48,9.50
2017,10,18,09,49,9.50
2017,10,18,09,50,9.50
2017,10,18,09,51,9.50
2017,10,18,09,52,9.50
2017,10,18,09,53,9.50
2017,10,18,09,54,9.50
2017,10,18,09,55,9.50
2017,10,18,09,56,9.50
2017,10,18,09,57,9.50
2017,10,18,09,58,9.50
2017,10,18,09,59,9.50
2017,10,18,10,00,9.50
2017,10,18,10,01,9.50
2017,10,18,10,02,9.50
2017,10,18,10,03,9.50
2017,10,18,10,04,9.40
2017,10,18,10,05,9.40
2017,10,18,10,06,9.50
2017,10,18,10,07,9.40
2017,10,18,10,08,9.40
2017,10,18,10,09,9.40
2017,10,18,10,10,9.40
2017,10,18,10,11,9.40
2017,10,18,10,12,9.40
2017,10,18,10,13,9.40
2017,10,18,10,14,9.40
2017,10,18,10,15,9.40
2017,10,18,10,16,9.40
2017,10,18,10,17,9.40
2017,10,18,10,18,9.40
2017,10,18,10,19,9.30
2017,10,18,10,20,9.30
2017,10,18,10,21,9.30
2017,10,18,10,22,9.30
2017,10,18,10,23,9.30
2017,10,18,10,24,9.30
2017,10,18,10,25,9.30
2017,10,18,10,26,9.30
2017,10,18,10,27,9.30
2017,10,18,10,28,9.30
2017,10,18,10,29,9.30
2017,10,18,10,30,9.30
2017,10,18,10,31,9.30
2017,10,18,10,32,9.30
2017,10,18,10,33,9.30
2017,10,18,10,34,9.30
2017,10,18,10,35,9.30
2017,10,18,10,36,9.30
2017,10,18,10,37,9.20
2017,10,18,10,38,9.20
2017,10,18,10,39,9.20
2017,10,18,10,40,9.20
2017,10,18,10,41,9.20
2017,10,18,10,42,9.20
2017,10,18,10,43,9.20
2017,10,18,10,44,9.20
2017,10,18,10,45,9.20
2017,10,18,10,46,9.20
2017,10,18,10,47,9.20
2017,10,18,10,48,9.20
2017,10,18,10,49,9.20
2017,10,18,10,50,9.20
2017,10,18,10,51,9.20
2017,10,18,10,52,9.20
2017,10,18,10,53,9.30
2017,10,18,10,54,9.30
2017,10,18,10,55,9.30
2017,10,18,10,56,9.30
2017,10,18,10,57,9.30
2017,10,18,10,58,9.30
2017,10,18,10,59,9.30
2017,10,18,11,00,9.30
2017,10,18,11,01,9.30
2017,10,18,11,02,9.30
2017,10,18,11,03,9.30
2017,10,18,11,04,9.30
2017,10,18,11,05,9.30
2017,10,18,11,06,9.30
2017,10,18,11,07,9.30
2017,10,18,11,08,9.30
2017,10,18,11,09,9.30
2017,10,18,11,10,9.30
2017,10,18,11,11,9.30
2017,10,18,11,12,9.30
2017,10,18,11,13,9.30
2017,10,18,11,14,9.30
2017,10,18,11,15,9.30
2017,10,18,11,16,9.40
2017,10,18,11,17,9.40
2017,10,18,11,18,9.50
2017,10,18,11,19,9.50
2017,10,18,11,20,9.60
2017,10,18,11,21,9.60
2017,10,18,11,22,9.70
2017,10,18,11,23,9.70
2017,10,18,11,24,9.80
2017,10,18,11,25,9.90
2017,10,18,11,26,9.90
2017,10,18,11,27,10.00
2017,10,18,11,28,10.10
2017,10,18,11,29,10.20
2017,10,18,11,30,10.20
2017,10,18,11,31,10.30
2017,10,18,11,32,10.30
2017,10,18,11,33,10.30
2017,10,18,11,34,10.40
2017,10,18,11,35,10.40
2017,10,18,11,36,10.50
2017,10,18,11,37,10.50
2017,10,18,11,38,10.50
2017,10,18,11,39,10.60
2017,10,18,11,40,10.60
2017,10,18,11,41,10.60
2017,10,18,11,42,10.60
2017,10,18,11,43,10.60
2017,10,18,11,44,10.60
2017,10,18,11,45,10.70
2017,10,18,11,46,10.70
2017,10,18,11,47,10.70
2017,10,18,11,48,10.70
2017,10,18,11,49,10.70
2017,10,18,11,50,10.70
2017,10,18,11,51,10.70
2017,10,18,11,52,10.70
2017,10,18,11,53,10.70
2017,10,18,11,54,10.70
2017,10,18,11,55,10.70
2017,10,18,11,56,10.60
2017,10,18,11,57,10.70
2017,10,18,11,58,10.60
2017,10,18,11,59,10.60
2017,10,18,12,00,10.60
2017,10,18,12,01,10.60
2017,10,18,12,02,10.60
2017,10,18,12,03,10.60
2017,10,18,12,04,10.60
2017,10,18,12,05,10.60
2017,10,18,12,06,10.60
2017,10,18,12,07,10.60
2017,10,18,12,08,10.60
2017,10,18,12,09,10.60
2017,10,18,12,10,10.60
2017,10,18,12,11,10.60
2017,10,18,12,12,10.60
2017,10,18,12,13,10.60
2017,10,18,12,14,10.60
2017,10,18,12,15,10.60
2017,10,18,12,16,10.60
2017,10,18,12,17,10.60
2017,10,18,12,18,10.60
2017,10,18,12,19,10.60
2017,10,18,12,20,10.60
2017,10,18,12,21,10.60
2017,10,18,12,22,10.60
2017,10,18,12,23,10.60
2017,10,18,12,24,10.60
2017,10,18,12,25,10.60
2017,10,18,12,26,10.60
2017,10,18,12,27,10.70
2017,10,18,12,28,10.70
2017,10,18,12,29,10.70
2017,10,18,12,30,10.70
2017,10,18,12,31,10.70
2017,10,18,12,32,10.70
2017,10,18,12,33,10.70
2017,10,18,12,34,10.70
2017,10,18,12,35,10.70
2017,10,18,12,36,10.70
2017,10,18,12,37,10.70
2017,10,18,12,38,10.70
2017,10,18,12,39,10.70
2017,10,18,12,40,10.70
2017,10,18,12,41,10.70
2017,10,18,12,42,10.70
2017,10,18,12,43,10.70
2017,10,18,12,44,10.80
2017,10,18,12,45,10.80
2017,10,18,12,46,10.80
2017,10,18,12,47,10.80
2017,10,18,12,48,10.80
2017,10,18,12,49,10.80
2017,10,18,12,50,10.80
2017,10,18,12,51,10.80
2017,10,18,12,52,10.80
2017,10,18,12,53,10.80
2017,10,18,12,54,10.80
2017,10,18,12,55,10.80
2017,10,18,12,56,10.80
2017,10,18,12,57,10.80
2017,10,18,12,58,10.80
2017,10,18,12,59,10.80
2017,10,18,13,00,10.80
2017,10,18,13,01,10.80
2017,10,18,13,02,10.80
2017,10,18,13,03,10.80
2017,10,18,13,04,10.80
2017,10,18,13,05,10.80
2017,10,18,13,06,10.80
2017,10,18,13,07,10.90
2017,10,18,13,08,10.90
2017,10,18,13,09,10.90
2017,10,18,13,10,10.90
2017,10,18,13,11,10.90
2017,10,18,13,12,10.90
2017,10,18,13,13,10.90
2017,10,18,13,14,11.00
2017,10,18,13,15,11.00
2017,10,18,13,16,11.00
2017,10,18,13,17,11.00
2017,10,18,13,18,11.00
2017,10,18,13,19,11.00
2017,10,18,13,20,11.10
2017,10,18,13,21,11.10
2017,10,18,13,22,11.10
2017,10,18,13,23,11.10
2017,10,18,13,24,11.10
2017,10,18,13,25,11.10
2017,10,18,13,26,11.10
2017,10,18,13,27,11.10
2017,10,18,13,28,11.10
2017,10,18,13,29,11.10
2017,10,18,13,30,11.20
2017,10,18,13,31,11.20
2017,10,18,13,32,11.20
2017,10,18,13,33,11.20
2017,10,18,13,34,11.20
2017,10,18,13,35,11.20
2017,10,18,13,36,11.20
2017,10,18,13,37,11.20
2017,10,18,13,38,11.20
2017,10,18,13,39,11.20
2017,10,18,13,40,11.20
2017,10,18,13,41,11.30
2017,10,18,13,42,11.30
2017,10,18,13,43,11.30
2017,10,18,13,44,11.30
2017,10,18,13,45,11.30
2017,10,18,13,46,11.30
2017,10,18,13,47,11.30
2017,10,18,13,48,11.30
2017,10,18,13,49,11.30
2017,10,18,13,50,11.30
2017,10,18,13,51,11.30
2017,10,18,13,52,11.30
2017,10,18,13,53,11.30
2017,10,18,13,54,11.30
2017,10,18,13,55,11.30
2017,10,18,13,56,11.30
2017,10,18,13,57,11.30
2017,10,18,13,58,11.30
2017,10,18,13,59,11.30
2017,10,18,14,00,11.30
2017,10,18,14,01,11.30
2017,10,18,14,02,11.30
2017,10,18,14,03,11.30
2017,10,18,14,04,11.30
2017,10,18,14,05,11.30
2017,10,18,14,06,11.30
2017,10,18,14,07,11.30
2017,10,18,14,08,11.30
2017,10,18,14,09,11.30
2017,10,18,14,10,11.30
2017,10,18,14,11,11.30
2017,10,18,14,12,11.30
2017,10,18,14,13,11.30
2017,10,18,14,14,11.30
2017,10,18,14,15,11.30
2017,10,18,14,16,11.30
2017,10,18,14,17,11.30
2017,10,18,14,18,11.30
2017,10,18,14,19,11.30
2017,10,18,14,20,11.30
2017,10,18,14,21,11.30
2017,10,18,14,22,11.30
2017,10,18,14,23,11.30
2017,10,18,14,24,11.30
2017,10,18,14,25,11.30
2017,10,18,14,26,11.30
2017,10,18,14,27,11.40
2017,10,18,14,28,11.40
2017,10,18,14,29,11.40
2017,10,18,14,30,11.40
2017,10,18,14,31,11.40
2017,10,18,14,32,11.40
2017,10,18,14,33,11.40
2017,10,18,14,34,11.50
2017,10,18,14,35,11.40
2017,10,18,14,36,11.50
2017,10,18,14,37,11.50
2017,10,18,14,38,11.50
2017,10,18,14,39,11.50
2017,10,18,14,40,11.50
2017,10,18,14,41,11.50
2017,10,18,14,42,11.60
2017,10,18,14,43,11.60
2017,10,18,14,44,11.60
2017,10,18,14,45,11.60
2017,10,18,14,46,11.60
2017,10,18,14,47,11.60
2017,10,18,14,48,11.60
2017,10,18,14,49,11.60
2017,10,18,14,50,11.60
2017,10,18,14,51,11.60
2017,10,18,14,52,11.60
2017,10,18,14,53,11.60
2017,10,18,14,54,11.60
2017,10,18,14,55,11.60
2017,10,18,14,56,11.60
2017,10,18,14,57,11.60
2017,10,18,14,58,11.60
2017,10,18,14,59,11.60
2017,10,18,15,00,11.60
2017,10,18,15,01,11.60
2017,10,18,15,02,11.60
2017,10,18,15,03,11.60
2017,10,18,15,04,11.60
2017,10,18,15,05,11.60
2017,10,18,15,06,11.60
2017,10,18,15,07,11.60
2017,10,18,15,08,11.60
2017,10,18,15,09,11.70
2017,10,18,15,10,11.60
2017,10,18,15,11,11.60
2017,10,18,15,12,11.60
2017,10,18,15,13,11.70
2017,10,18,15,14,11.60
2017,10,18,15,15,11.60
2017,10,18,15,16,11.60
2017,10,18,15,17,11.60
2017,10,18,15,18,11.60
2017,10,18,15,19,11.60
2017,10,18,15,20,11.60
2017,10,18,15,21,11.60
2017,10,18,15,22,11.60
2017,10,18,15,23,11.60
2017,10,18,15,24,11.60
2017,10,18,15,25,11.70
2017,10,18,15,26,11.70
2017,10,18,15,27,11.70
2017,10,18,15,28,11.70
2017,10,18,15,29,11.70
2017,10,18,15,30,11.70
2017,10,18,15,31,11.60
2017,10,18,15,32,11.60
2017,10,18,15,33,11.50
2017,10,18,15,34,11.50
2017,10,18,15,35,11.40
2017,10,18,15,36,11.40
2017,10,18,15,37,11.30
2017,10,18,15,38,11.30
2017,10,18,15,39,11.30
2017,10,18,15,40,11.30
2017,10,18,15,41,11.30
2017,10,18,15,42,11.30
2017,10,18,15,43,11.30
2017,10,18,15,44,11.20
2017,10,18,15,45,11.20
2017,10,18,15,46,11.20
2017,10,18,15,47,11.20
2017,10,18,15,48,11.20
2017,10,18,15,49,11.20
2017,10,18,15,50,11.20
2017,10,18,15,51,11.20
2017,10,18,15,52,11.20
2017,10,18,15,53,11.20
2017,10,18,15,54,11.20
2017,10,18,15,55,11.20
2017,10,18,15,56,11.20
2017,10,18,15,57,11.20
2017,10,18,15,58,11.20
2017,10,18,15,59,11.20
2017,10,18,16,00,11.20
2017,10,18,16,01,11.20
2017,10,18,16,02,11.20
2017,10,18,16,03,11.20
2017,10,18,16,04,11.30
2017,10,18,16,05,11.30
2017,10,18,16,06,11.30
2017,10,18,16,07,11.30
2017,10,18,16,08,11.30
2017,10,18,16,09,11.30
2017,10,18,16,10,11.30
2017,10,18,16,11,11.30
2017,10,18,16,12,11.30
2017,10,18,16,13,11.30
2017,10,18,16,14,11.30
2017,10,18,16,15,11.30
2017,10,18,16,16,11.30
2017,10,18,16,17,11.30
2017,10,18,16,18,11.30
2017,10,18,16,19,11.30
2017,10,18,16,20,11.40
2017,10,18,16,21,11.40
2017,10,18,16,22,11.40
2017,10,18,16,23,11.40
2017,10,18,16,24,11.40
2017,10,18,16,25,11.40
2017,10,18,16,26,11.40
2017,10,18,16,27,11.50
2017,10,18,16,28,11.50
2017,10,18,16,29,11.50
2017,10,18,16,30,11.50
2017,10,18,16,31,11.50
2017,10,18,16,32,11.50
2017,10,18,16,33,11.50
2017,10,18,16,34,11.50
2017,10,18,16,35,11.60
2017,10,18,16,36,11.60
2017,10,18,16,37,11.60
2017,10,18,16,38,11.60
2017,10,18,16,39,11.60
2017,10,18,16,40,11.70
2017,10,18,16,41,11.70
2017,10,18,16,42,11.80
2017,10,18,16,43,11.80
2017,10,18,16,44,11.90
2017,10,18,16,45,11.90
2017,10,18,16,46,12.00
2017,10,18,16,47,12.00
2017,10,18,16,48,12.00
2017,10,18,16,49,12.00
2017,10,18,16,50,12.10
2017,10,18,16,51,12.10
2017,10,18,16,52,12.10
2017,10,18,16,53,12.10
2017,10,18,16,54,12.10
2017,10,18,16,55,12.10
2017,10,18,16,56,12.20
2017,10,18,16,57,12.20
2017,10,18,16,58,12.20
2017,10,18,16,59,12.20
2017,10,18,17,00,12.20
2017,10,18,17,01,12.30
2017,10,18,17,02,12.30
2017,10,18,17,03,12.30
2017,10,18,17,04,12.30
2017,10,18,17,05,12.30
2017,10,18,17,06,12.30
2017,10,18,17,07,12.30
2017,10,18,17,08,12.30
2017,10,18,17,09,12.30
2017,10,18,17,10,12.30
2017,10,18,17,11,12.30
2017,10,18,17,12,12.40
2017,10,18,17,13,12.40
2017,10,18,17,14,12.40
2017,10,18,17,15,12.40
2017,10,18,17,16,12.40
2017,10,18,17,17,12.40
2017,10,18,17,18,12.40
2017,10,18,17,19,12.40
2017,10,18,17,20,12.40
2017,10,18,17,21,12.40
2017,10,18,17,22,12.40
2017,10,18,17,23,12.40
2017,10,18,17,24,12.40
2017,10,18,17,25,12.40
2017,10,18,17,26,12.40
2017,10,18,17,27,12.40
2017,10,18,17,28,12.40
2017,10,18,17,29,12.40
2017,10,18,17,30,12.40
2017,10,18,17,31,12.40
2017,10,18,17,32,12.40
2017,10,18,17,33,12.40
2017,10,18,17,34,12.40
2017,10,18,17,35,12.30
2017,10,18,17,36,12.30
2017,10,18,17,37,12.30
2017,10,18,17,38,12.30
2017,10,18,17,39,12.30
2017,10,18,17,40,12.30
2017,10,18,17,41,12.30
2017,10,18,17,42,12.30
2017,10,18,17,43,12.20
2017,10,18,17,44,12.20
2017,10,18,17,45,12.20
2017,10,18,17,46,12.20
2017,10,18,17,47,12.20
2017,10,18,17,48,12.20
2017,10,18,17,49,12.20